Satellite: RS-38 Catalog number: 35869 Epoch time: 10028.78446769 Element set: 116 Inclination: 098.7760 deg RA of node: 083.4714 deg Eccentricity: 0.0005185 Arg of perigee: 056.3372 deg Mean anomaly: 303.7677 deg Mean motion: 14.21971801 rev/day Decay rate: 1.76e-06 rev/day^2 Epoch rev: 1891 Checksum: 331
/EX